Location: Newark
(44.1667°N, 8.2500°E)
Time: 15:42:18
(UTC+00:00)

SR - Visible Passes

Search period start: 05 December 2019 00:00
Search period end: 15 December 2019 00:00
Orbit: 573 x 882 km, 66.7° (Epoch: 05 December)

Date Brightness Start Highest point End Pass type
(mag) Time Alt. Az. Time Alt. Az. Time Alt. Az.
05 Dec ? 17:44:09 10° NNW 17:49:01 31° NE 17:49:01 31° NE visible
05 Dec ? 19:26:06 10° NW 19:28:28 24° NW 19:28:28 24° NW visible
06 Dec ? 16:54:51 10° N 16:59:12 20° NE 17:01:20 17° ENE visible
06 Dec ? 18:36:18 10° NNW 18:40:47 53° NNW 18:40:47 53° NNW visible
06 Dec ? 20:20:08 10° WNW 20:20:15 10° WNW 20:20:15 10° WNW visible
07 Dec ? 17:46:42 10° NNW 17:52:27 49° NE 17:53:19 45° ENE visible
07 Dec ? 19:29:17 10° NW 19:32:48 27° W 19:32:48 27° W visible
08 Dec ? 16:57:16 10° NNW 17:02:26 30° NE 17:06:09 16° E visible
08 Dec ? 18:39:10 10° NW 18:44:56 57° WSW 18:45:39 53° SW visible
09 Dec ? 17:49:22 10° NNW 17:55:19 80° ENE 17:59:01 23° SE visible
09 Dec ? 19:33:04 10° WNW 19:36:39 17° WSW 19:38:34 15° SW visible
10 Dec ? 16:59:48 10° NNW 17:05:29 46° NE 17:10:54 10° SE visible
10 Dec ? 18:42:19 10° NW 18:47:26 32° WSW 18:52:17 10° S visible
11 Dec ? 17:52:14 10° NW 17:58:02 60° WSW 18:03:27 10° SSE visible
12 Dec ? 17:02:27 10° NNW 17:08:23 76° ENE 17:13:56 10° SE visible
12 Dec ? 18:46:01 10° WNW 18:49:47 18° WSW 18:53:23 10° SW visible
13 Dec ? 16:12:54 10° NNW 16:18:32 44° NE 16:23:53 10° ESE visible
13 Dec ? 17:55:21 10° NW 18:00:32 34° WSW 18:05:26 10° S visible
14 Dec ? 17:05:18 10° NW 17:11:06 64° WSW 17:16:31 10° SSE visible
